Weather History for Monterey, CA

Change the Weather History Date:

Friday, November 16, 2012

  Actual Average Record
Temperature  
Mean Temperature 59 °F 55 °F  
Max Temperature 65 °F 64 °F 83 °F (2008)
Min Temperature 53 °F 46 °F 41 °F (2009)
Degree Days  
Heating Degree Days 6    
Month to date heating degree days 133  
Since 1 July heating degree days 808  
Cooling Degree Days 0    
Month to date cooling degree days 10  
Year to date cooling degree days 36  
Growing Degree Days 8 (Base 50)    
Moisture  
Dew Point 54 °F    
Average Humidity 84    
Maximum Humidity 100    
Minimum Humidity 67    
Precipitation  
Precipitation 0.37 in - 0.37 in (2012)
Month to date precipitation 1.07  
Year to date precipitation 9.40  
Since 1 July precipitation 1.75  
Sea Level Pressure  
Sea Level Pressure 29.98 in    
Wind  
Wind Speed 2 mph (ESE)    
Max Wind Speed 14 mph    
Max Gust Speed 17 mph    
Visibility 8 miles    
Events Rain    
T = Trace of Precipitation, MM = Missing Value Source: NWS Daily Summary

Daily Weather History Graph

Daily Weather History Graph

Search for Another Location

Airport:

Trip Planner

Search our weather history database for the weather conditions in past years. The results will help you decide how hot, cold, wet, or windy it might be!

Date:

Astronomy

Nov. 16, 2012 Rise Set
Actual Time 6:46 AM PST 4:57 PM PST
Civil Twilight 6:19 AM PST 5:25 PM PST
Nautical Twilight 5:47 AM PST 5:56 PM PST
Astronomical Twilight 5:17 AM PST 6:27 PM PST
Moon 9:44 AM PST (11/16) 8:04 PM PST (11/16)
Length of Visible Light 11h 06m
Length of Day
10h 10m
Waxing Crescent, 12% of the Moon is Illuminated
Nov 16
Waxing Crescent
Nov 20
First Quarter
Nov 28
Full
Dec 6
Last Quarter
Dec 13
New

Hourly Weather History & Observations

Time (PST) Temp. Dew Point Humidity Pressure Visibility Wind Dir Wind Speed Gust Speed Precip Events Conditions
12:54 AM 53.1 °F 50.0 °F 89% 30.03 in 10.0 mi Calm Calm - N/A   Overcast
1:54 AM 55.0 °F 50.0 °F 83% 30.03 in 10.0 mi Calm Calm - N/A   Overcast
2:54 AM 55.0 °F 50.0 °F 83% 30.02 in 10.0 mi Calm Calm - N/A   Overcast
3:54 AM 55.9 °F 48.9 °F 77% 30.01 in 10.0 mi East 5.8 mph - N/A   Overcast
4:54 AM 55.9 °F 48.0 °F 75% 30.00 in 10.0 mi East 3.5 mph - N/A   Overcast
5:54 AM 57.0 °F 46.9 °F 69% 30.00 in 10.0 mi ESE 3.5 mph - N/A   Overcast
6:54 AM 54.0 °F 51.1 °F 90% 29.99 in 6.0 mi ENE 8.1 mph - 0.08 in Rain Rain
7:54 AM 55.0 °F 52.0 °F 89% 30.03 in 3.0 mi Calm Calm - 0.06 in Rain Rain
8:54 AM 55.0 °F 54.0 °F 96% 30.03 in 8.0 mi Calm Calm - 0.03 in Rain Rain
9:28 AM 55.4 °F 53.6 °F 94% 30.00 in 1.5 mi Calm Calm - 0.10 in Rain Rain
9:42 AM 55.4 °F 53.6 °F 94% 30.00 in 3.0 mi ENE 3.5 mph - 0.13 in Rain Light Rain
9:54 AM 55.0 °F 54.0 °F 96% 30.04 in 5.0 mi Calm Calm - 0.13 in   Overcast
10:11 AM 55.4 °F 53.6 °F 94% 30.00 in 4.0 mi West 3.5 mph - N/A   Overcast
10:54 AM 55.9 °F 55.0 °F 97% 30.02 in 6.0 mi Calm Calm - N/A   Overcast
11:54 AM 60.1 °F 57.0 °F 90% 30.01 in 10.0 mi Calm Calm - N/A   Mostly Cloudy
12:54 PM 62.1 °F 57.9 °F 86% 29.99 in 10.0 mi Calm Calm - N/A   Overcast
1:54 PM 61.0 °F 57.9 °F 90% 29.97 in 10.0 mi WSW 4.6 mph - N/A   Overcast
2:54 PM 63.0 °F 57.0 °F 81% 29.97 in 10.0 mi SSW 4.6 mph - N/A   Overcast
3:54 PM 63.0 °F 57.0 °F 81% 29.96 in 10.0 mi Calm Calm - N/A   Overcast
4:54 PM 62.1 °F 57.0 °F 84% 29.95 in 10.0 mi Calm Calm - N/A   Overcast
5:54 PM 60.1 °F 55.9 °F 86% 29.94 in 9.0 mi Calm Calm - 0.01 in   Overcast
6:54 PM 59.0 °F 57.0 °F 93% 29.94 in 9.0 mi East 3.5 mph - 0.04 in   Overcast
7:54 PM 59.0 °F 57.0 °F 93% 29.94 in 10.0 mi Calm Calm - N/A   Overcast
8:54 PM 57.9 °F 55.9 °F 93% 29.94 in 10.0 mi East 3.5 mph - N/A   Overcast
9:54 PM 57.9 °F 55.9 °F 93% 29.93 in 10.0 mi Calm Calm - N/A   Overcast
10:54 PM 57.0 °F 55.9 °F 96% 29.93 in 10.0 mi Calm Calm - 0.01 in   Overcast
11:54 PM 57.9 °F 55.9 °F 93% 29.91 in 7.0 mi Calm Calm - 0.01 in   Overcast